#timestamp,LO_Frequency,Hit,StdDev 
1619560815.9,286047002.7,N
1619560835.7,286047001.9,N
1619560855.5,286047001.7,N
1619560875.4,286047002.1,N
1619560895.2,286046999.9,N
1619560915.1,286047002.4,N
1619560916.0,286047002.4,N
1619560935.8,286047001.8,N
1619560955.6,286046999.7,N
1619560975.5,286047002.2,N
1619560995.3,286047003.1,N
1619561015.1,286047003.5,N
1619561035.9,286047003.6,N
1619561055.7,286047001.9,N
1619561075.6,286047000.1,N
1619561095.4,286047000.1,N
1619561115.2,286047001.1,N
1619561135.1,286046999.9,N
1619561136.0,286046999.9,N
1619561155.8,286047005.5,Y
1619561175.6,286047004.0,P
1619561195.5,286047001.3,N
1619561215.3,286047004.2,P
1619561235.2,286047002.1,N
1619561255.9,286047000.6,N
1619561275.7,286047004.4,Y
1619561295.6,286047000.2,P
1619561315.4,286046999.7,N
1619561335.2,286047000.9,N
1619561355.1,286046999.9,N
1619561356.0,286046999.9,N
1619561375.8,286046999.9,N
1619561395.7,286046998.5,N
1619561415.5,286047000.6,N
1619561435.3,286047000.7,N
1619561455.2,286046998.3,N
1619561475.0,286046998.5,N
1619561475.9,286046998.5,N
1619561495.8,286047000.7,N
1619561515.6,286046998.6,N
1619561535.4,286047002.3,N
1619561555.3,286047001.9,N
1619561575.1,286047000.4,N
1619561576.0,286047000.4,N
1619561595.8,286047000.2,N
1619561615.7,286046998.2,N
1619561635.5,286046999.9,N
1619561655.3,286047002.6,N
1619561675.2,286047002.1,N
1619561695.0,286047001.0,N
1619561695.9,286047001.0,N
1619561715.8,286046998.7,N
1619561735.6,286046996.5,N
1619561755.4,286046998.9,N
1619561775.3,286046999.6,N
1619561795.1,286046999.1,N
1619561815.9,286046999.9,N
1619561835.7,286047002.3,N
1619561855.5,286047000.2,N
1619561875.4,286047000.0,N
1619561895.2,286046999.8,N
1619561915.0,286046998.7,N
1619561916.0,286046998.7,N
1619561935.8,286046996.5,N
1619561955.6,286046999.0,N
1619561975.5,286046998.5,N
1619561995.3,286046996.5,N
1619562015.2,286046997.0,N
1619562035.9,286046995.5,N
1619562055.7,286046997.7,N
1619562075.6,286046995.5,N
1619562095.4,286046995.1,N
1619562115.3,286046997.9,N
1619562135.1,286046996.8,N
1619562136.0,286046996.8,N
1619562155.8,286046998.4,N
1619562175.7,286047001.1,N
1619562195.5,286046999.7,N
1619562215.3,286046998.6,N
1619562235.2,286046997.8,N
1619562255.0,286046993.5,Y
1619562255.9,286046993.5,P
1619562275.8,286046997.7,N
1619562295.6,286046998.8,N
1619562315.4,286046999.6,N
1619562335.3,286046996.8,N
1619562355.1,286046997.7,N
1619562375.9,286046997.6,N
1619562395.7,286046995.6,N
1619562415.5,286046996.4,N
1619562435.4,286046993.7,Y
1619562455.2,286046997.9,P
1619562475.1,286046997.9,P
1619562476.0,286046997.9,P
1619562495.8,286046996.7,Y
1619562515.6,286047000.0,P
1619562535.5,286047001.2,N
1619562555.3,286047002.6,N
1619562575.2,286046999.8,N
1619562595.9,286047000.4,N
1619562615.7,286046999.5,N
1619562635.6,286046998.2,N
1619562655.4,286046998.2,N
1619562675.3,286046998.2,N
1619562695.1,286047001.2,N
1619562696.0,286047001.2,N
1619562715.8,286047001.2,N
1619562735.7,286047000.9,N
1619562755.5,286046998.4,N
1619562775.3,286046998.2,N
1619562795.2,286047000.8,N
1619562815.0,286047000.5,N
1619562815.9,286047000.5,N
1619562835.8,286047000.5,N
1619562855.6,286047002.5,N
1619562875.4,286047000.6,N
1619562895.3,286047002.8,N
1619562915.1,286047000.2,N
1619562935.9,286047000.4,N
1619562955.7,286047000.1,N
1619562975.5,286047002.1,N
1619562995.4,286047001.6,N
1619563015.2,286047000.2,N
1619563035.0,286046998.5,N
1619563035.9,286046998.5,N
1619563055.8,286046998.5,N
1619563075.6,286046998.4,N
1619563095.5,286047000.7,N
1619563115.3,286047000.5,N
1619563135.1,286046999.0,N
1619563155.9,286047001.1,N
1619563175.7,286046998.8,N
1619563195.6,286047000.2,N
1619563215.4,286046998.1,N
1619563235.2,286047000.1,N
1619563255.1,286047002.4,N
1619563256.0,286047002.4,N
1619563275.8,286047004.3,Y
1619563295.7,286046999.8,P
1619563315.5,286047002.5,P
1619563335.3,286047004.4,P
1619563355.2,286047004.3,N
1619563375.9,286047003.2,N
1619563395.7,286047003.9,N
1619563445.6,286047004.2,E
1619563455.5,286046999.9,N
1619563475.4,286046997.0,P
1619563495.2,286046999.3,N
1619563515.0,286046999.5,N
1619563515.9,286046999.5,N
1619563535.8,286046999.0,N
1619563555.6,286046998.5,N
1619563575.5,286047000.7,N
1619563595.3,286046998.9,N
1619563615.1,286046998.5,N
1619563635.9,286046999.4,N
1619563655.7,286046997.1,Y
1619563675.5,286046996.6,P
1619563695.4,286046999.4,N
1619563715.2,286046998.6,N
1619563735.1,286046998.5,N
1619563736.0,286046998.5,N
1619563755.8,286046998.1,N
1619563775.6,286047000.9,N
1619563795.5,286046999.7,N
1619563815.3,286047002.7,N
1619563835.1,286047000.2,N
1619563855.9,286046998.4,N
1619563875.7,286046998.5,N
1619563895.6,286046998.5,N
1619563915.4,286047000.2,N
1619563935.2,286047000.5,N
1619563955.1,286046999.9,N
1619563956.0,286046999.9,N
1619563975.8,286047000.1,N
1619563995.6,286046999.8,N
1619564015.5,286047002.0,N
1619564035.3,286047000.0,N
1619564055.2,286046999.8,N
1619564075.9,286047001.2,N
1619564095.7,286046998.5,N
1619564115.6,286046998.2,N
1619564135.4,286046999.9,N
1619564155.2,286047002.4,N
1619564175.1,286047001.3,N
1619564176.0,286047001.3,N
1619564195.8,286047003.3,N
1619564215.7,286047003.5,N
1619564235.5,286047004.2,N
1619564255.3,286046999.7,N
1619564275.2,286047002.2,N
1619564295.0,286047002.1,N
1619564295.9,286047002.1,N
1619564315.7,286047002.0,N
1619564335.6,286047000.1,N
1619564355.4,286047001.1,N
1619564375.3,286046998.2,N
1619564395.1,286046999.0,N
1619564396.0,286046999.0,N
